Location: Berg
(48.4333°N, 13.9167°E)
Time: 03:16:50
(UTC+00:00)

USA 234 - Pass Details

Date: 18 September 2020
Orbit: 1102 x 1106 km, 123.0° (Epoch: 16 October)

Event Time Altitude Azimuth Distance (km) Brightness Sun altitude
Rises 20:15:46 0° 55° (NE) 3,927 6.0 -29.0°
Enters shadow 20:16:06 - 55° (NE) 3,801 6.0 -29.0°
Exits shadow 20:19:21 16° 54° (NE) 2,553 5.0 -29.4°
Maximum altitude 20:24:49 79° 330° (NNW) 1,127 3.2 -30.1°
Drops below altitude 10° 20:31:21 10° 245° (WSW) 2,960 5.7 -30.9°
Sets 20:33:49 0° 244° (WSW) 3,917 6.4 -31.1°
